Theta_e
318 318 318 318 318 318 318 317 317 317 319 318 318 318 319 320 320 316 308 316 318 327 326 311 312 311 310 309 307 305 306 303 303 306 318 323 322 327 329 326 330 332 331 338 344
320 319 318 318 318 318 317 317 318 318 319 319 319 318 319 320 316 311 323 331 334 329 310 311 310 310 309 307 307 307 306 303 305 306 318 323 325 326 324 323 327 333 339 343 344
319 319 319 318 318 318 317 318 318 318 319 319 319 319 320 319 316 318 336 333 334 323 311 311 311 308 306 307 305 304 305 305 307 307 314 323 322 324 322 321 324 329 334 338 339
319 319 319 318 318 318 318 317 318 319 319 319 320 319 320 317 303 317 341 336 329 312 311 313 310 306 305 305 305 304 305 305 307 307 312 320 323 324 327 326 330 336 337 337 335
319 319 318 319 318 318 318 318 318 318 318 318 320 319 318 314 314 329 338 331 312 310 309 312 308 307 306 305 306 305 305 305 306 307 317 324 324 324 325 329 335 336 336 335 335
319 319 318 318 318 319 318 318 317 317 317 319 321 320 317 307 320 329 317 311 309 311 312 313 310 309 307 306 306 306 305 305 306 306 319 322 320 324 325 329 331 331 330 330 330
318 318 318 318 318 318 318 317 317 317 317 320 321 321 315 312 321 322 314 311 311 313 312 313 312 309 308 306 307 305 305 306 305 306 307 313 314 320 325 327 327 327 327 327 328
318 317 317 318 318 318 318 317 317 317 318 320 322 321 314 322 321 316 315 315 314 314 314 313 311 310 308 308 306 304 304 302 304 305 303 305 304 322 325 325 323 324 325 324 324
317 316 316 317 318 317 316 316 317 318 320 323 321 317 313 321 315 318 318 314 313 312 313 311 311 307 307 305 303 303 300 300 301 308 304 307 311 320 323 323 321 321 322 322 323
316 316 316 316 317 316 316 317 320 321 321 322 320 311 314 311 316 315 317 315 312 310 310 309 307 306 305 304 297 299 299 300 300 307 313 314 312 317 320 320 318 319 319 320 320
316 315 315 315 315 314 313 315 313 311 314 309 310 309 310 316 316 314 315 313 311 310 305 306 303 300 303 303 303 302 301 300 301 306 313 311 310 315 318 318 317 317 317 318 318
315 315 316 315 314 314 313 313 312 313 306 311 311 310 313 316 310 311 315 309 307 304 304 304 302 304 304 303 302 303 302 300 305 311 314 312 310 314 317 315 316 315 315 315 315
314 314 315 314 313 313 313 313 314 312 306 307 309 309 311 315 310 309 312 309 306 303 303 302 303 304 303 302 303 301 301 300 301 312 315 312 309 313 314 314 315 315 316 315 313
313 314 314 312 312 310 311 314 313 312 301 300 307 310 311 312 307 312 312 310 306 303 302 302 304 303 303 302 303 300 302 302 300 300 299 300 296 307 315 315 313 313 314 314 314
313 313 313 312 311 309 312 313 313 314 289 305 308 312 308 307 308 308 311 310 304 304 303 301 302 303 302 302 303 301 303 302 300 299 298 296 295 299 311 313 315 313 313 314 315
313 313 312 311 310 313 312 312 314 298 288 302 306 304 305 305 306 307 308 311 308 304 305 303 306 305 303 303 303 303 302 300 299 299 294 295 295 297 304 309 313 313 312 314 315
312 312 310 312 308 312 313 312 298 291 300 301 301 302 303 302 304 305 304 304 302 298 300 303 303 305 306 303 303 303 301 296 293 293 293 296 296 299 304 310 313 314 310 314 316
310 309 309 312 313 312 313 305 291 295 297 306 303 301 300 302 302 303 303 301 303 302 300 298 296 302 305 303 302 300 301 296 289 291 294 296 294 301 311 314 316 317 312 314 315
307 311 310 313 313 312 310 295 294 297 303 301 303 299 299 301 302 302 302 302 304 305 300 299 298 304 304 304 304 300 299 299 295 293 293 296 299 307 312 312 314 314 313 313 314
307 307 308 313 315 313 305 295 299 302 304 302 297 301 297 300 300 301 301 303 303 305 306 304 297 301 302 304 303 303 302 297 298 289 287 292 293 297 307 311 313 314 311 313 316
307 303 308 313 315 311 300 299 299 304 305 302 300 301 301 301 300 299 300 303 304 303 305 304 302 299 302 301 301 299 299 297 299 296 290 288 293 304 308 314 314 316 315 315 316
305 298 308 312 304 302 302 301 302 305 307 305 304 303 302 302 301 301 300 302 305 306 302 303 303 297 297 302 303 302 300 301 295 293 294 294 294 304 306 311 316 317 317 319 318
302 302 311 310 295 298 302 302 304 304 304 304 302 304 305 303 301 301 301 304 305 305 304 304 300 295 295 300 302 300 300 299 299 298 294 292 295 305 308 309 313 315 318 318 318
303 298 303 307 303 299 299 300 301 305 304 306 305 305 303 301 302 301 300 303 306 307 307 309 300 300 295 297 301 298 299 300 300 296 296 295 298 302 304 305 307 307 309 312 315
303 299 301 298 301 303 303 300 299 300 305 306 303 303 303 300 300 300 301 302 304 307 303 307 301 298 297 297 299 299 299 299 298 299 295 298 297 302 305 305 307 310 312 313 314
300 299 304 302 304 302 300 300 300 302 304 301 301 304 304 303 304 301 302 302 302 303 303 302 299 299 297 298 299 297 299 299 299 299 298 299 299 306 307 310 310 310 311 311 312
304 305 303 298 300 299 299 301 301 303 305 306 306 305 302 304 306 307 308 307 307 304 302 303 300 297 293 297 297 294 299 300 301 301 301 296 301 305 307 308 309 310 311 310 311
Wind_Speed
13 12 11 11 11 10 10 9 9 8 9 8 8 7 8 9 9 2 5 2 2 5 2 3 3 2 1 3 1 2 1 5 3 0 3 2 6 4 3 8 6 6 4 9 15
17 16 15 13 11 11 10 10 9 8 9 7 7 6 6 6 2 5 6 5 4 3 3 3 2 2 2 1 1 2 1 3 1 1 4 9 9 6 4 6 8 12 13 14 14
19 17 15 13 12 11 10 10 9 8 7 6 6 5 4 2 1 1 1 8 6 4 2 2 3 2 2 0 2 1 2 2 6 3 3 7 8 5 5 9 5 7 12 12 12
17 16 15 14 13 12 10 10 10 8 6 5 3 3 2 2 3 3 4 10 7 3 3 3 2 2 2 2 1 2 1 3 5 5 3 6 6 8 12 6 6 11 11 11 10
15 17 17 16 14 12 11 10 9 7 6 4 2 0 3 1 1 3 7 6 4 3 1 2 3 2 3 2 2 1 3 1 4 8 9 12 13 9 11 8 10 12 12 11 10
18 17 16 15 15 14 11 9 7 5 5 4 2 1 1 4 2 5 6 4 3 3 2 1 2 2 4 2 1 2 2 2 3 5 6 12 7 1 8 6 11 12 12 12 12
20 19 18 17 16 15 11 8 5 3 3 2 2 2 1 4 1 5 5 1 2 1 1 1 3 1 2 2 3 1 2 2 7 3 5 10 8 8 5 7 11 12 11 12 12
20 20 20 19 18 15 12 8 4 3 1 1 0 3 1 1 5 4 3 2 3 3 2 1 3 4 2 1 3 3 2 4 5 3 4 5 5 3 5 8 9 9 9 10 12
22 22 22 21 20 17 13 7 4 4 3 3 1 2 2 2 3 2 4 2 1 2 1 4 3 3 3 3 3 3 4 2 1 6 1 1 6 2 3 6 7 7 8 8 9
23 23 23 23 22 15 8 2 8 6 2 2 2 2 1 4 3 3 3 2 1 2 2 2 4 2 3 4 7 5 4 2 1 5 8 11 10 4 4 6 6 6 7 7 9
24 24 25 24 22 10 3 2 4 1 1 4 4 3 7 4 2 2 2 4 1 4 2 2 5 7 8 4 2 4 7 5 2 4 7 9 8 5 5 6 6 6 6 6 7
23 24 26 27 23 10 2 5 2 4 8 7 8 7 5 1 1 1 4 2 1 3 2 3 2 3 4 5 4 5 8 5 6 5 5 7 6 4 4 3 2 3 4 4 5
22 23 25 29 23 3 2 4 6 6 5 5 3 3 2 7 4 4 7 3 2 2 2 2 3 5 4 7 8 3 3 3 3 7 9 8 5 6 4 4 4 3 3 3 2
22 22 22 33 2 6 3 3 6 6 3 4 2 1 5 3 2 2 4 2 2 0 3 1 1 6 8 4 1 4 3 5 6 2 1 2 3 4 6 7 7 7 7 5 5
22 21 19 10 5 4 6 8 1 3 4 1 2 2 1 4 3 3 1 2 2 3 3 3 3 7 3 1 2 4 4 5 3 4 2 3 5 3 1 10 12 9 8 7 5
23 22 20 2 2 6 10 9 2 0 3 3 2 4 5 1 2 3 2 4 2 3 3 2 1 2 3 4 3 11 5 6 4 1 5 2 4 5 5 6 5 11 10 8 7
24 26 13 2 3 7 7 2 0 3 3 3 1 2 4 5 4 3 5 4 3 4 3 2 2 2 2 6 4 2 3 3 3 3 2 2 5 5 2 7 6 14 12 10 8
25 24 3 4 6 7 1 2 2 1 5 3 2 0 7 7 3 3 4 5 2 3 3 5 5 1 3 2 3 2 3 4 5 4 3 3 6 1 3 3 5 10 8 8 10
23 5 4 2 2 3 3 2 4 5 2 7 6 3 4 4 4 5 7 5 5 8 4 5 4 1 5 2 2 5 3 3 5 2 4 3 3 5 1 4 6 9 10 12 10
7 5 4 9 4 1 3 4 4 4 3 0 3 2 4 6 9 8 8 3 6 4 2 6 4 0 3 0 11 1 8 3 1 4 5 3 5 6 6 8 10 13 15 14 11
3 5 1 4 2 1 4 6 5 6 4 2 2 3 2 3 4 5 6 3 3 4 2 5 2 4 2 3 6 5 4 5 2 2 5 5 3 3 6 11 13 15 16 15 14
3 4 2 2 2 1 5 6 4 3 3 4 3 7 4 4 3 4 8 0 3 8 7 2 4 4 2 2 3 2 2 6 5 5 2 4 5 3 4 4 10 13 14 13 13
3 4 2 2 5 5 3 4 5 7 5 3 3 5 1 5 3 3 4 2 1 4 8 9 2 4 3 4 2 4 4 4 5 2 8 7 4 3 1 1 3 9 11 10 9
2 4 2 1 1 3 5 7 10 7 6 5 8 3 3 3 0 5 4 2 2 3 4 4 4 4 9 0 3 5 8 9 5 6 6 11 9 7 5 6 7 8 6 6 6
2 3 2 2 2 1 1 2 7 10 7 6 3 11 8 6 4 4 3 3 2 3 3 1 4 4 2 2 4 4 9 11 11 9 9 12 14 14 7 5 4 3 1 4 6
3 2 2 3 5 4 3 3 5 7 7 5 6 12 12 8 9 10 8 6 5 3 3 1 4 3 3 5 6 8 10 11 13 11 11 14 17 14 4 5 5 6 7 9 9
1 1 3 2 1 3 4 6 3 4 7 10 10 7 10 9 4 1 3 6 6 8 5 5 7 5 5 1 3 9 17 16 10 8 9 12 9 8 10 9 8 8 7 8 8
Wind_Direction
0 355 346 340 329 316 320 316 319 326 327 332 335 330 329 326 310 180 248 230 175 155 168 150 123 102 167 114 136 180 115 69 78 228 83 97 124 80 80 97 67 10 49 97 129
7 1 355 343 328 318 318 310 318 326 319 330 326 321 325 340 335 254 250 162 153 176 151 144 115 101 101 79 62 315 48 5 351 245 115 85 89 84 114 96 68 78 93 112 132
5 358 355 341 333 318 315 313 314 312 314 326 323 312 317 312 227 339 55 178 196 204 121 105 101 103 114 309 38 87 28 334 350 32 54 84 77 45 114 62 34 129 121 121 128
356 351 352 348 338 330 322 317 304 306 311 322 317 298 314 247 95 12 111 146 167 162 155 111 71 99 97 99 4 273 25 271 354 358 67 74 73 65 46 43 92 113 116 119 120
347 350 349 342 337 324 319 312 300 305 310 325 325 299 169 106 323 92 123 132 131 164 136 103 89 134 105 107 157 332 19 140 11 84 62 95 68 83 62 63 97 103 96 89 82
348 347 341 338 328 318 305 300 298 308 311 332 337 270 111 72 39 149 138 150 172 183 126 164 128 163 97 76 46 336 306 31 74 102 115 106 59 135 57 88 95 90 80 71 62
346 342 340 337 326 317 312 294 314 287 297 336 334 311 111 71 86 164 178 201 203 241 94 165 141 150 145 130 1 127 168 70 49 59 104 114 46 60 68 107 98 86 71 64 55
346 340 343 336 332 327 319 311 285 229 169 270 234 284 300 123 135 164 186 254 227 241 267 108 156 91 4 102 35 33 52 199 49 9 77 257 116 100 55 120 92 81 75 64 50
346 343 341 340 341 342 334 300 212 134 118 142 201 336 93 149 234 160 191 195 229 134 90 86 63 58 143 147 145 34 185 227 150 36 219 237 138 120 91 121 97 84 72 68 65
346 343 342 342 346 349 6 149 121 119 98 198 234 225 236 326 298 135 183 213 104 124 143 61 64 156 130 201 193 150 149 122 177 28 59 101 118 143 102 118 100 86 77 73 68
345 343 342 344 340 348 309 237 346 44 59 263 277 254 282 282 261 151 156 131 103 68 163 42 212 205 186 190 135 135 124 124 64 60 81 87 126 134 131 132 128 111 105 100 84
343 343 341 338 335 321 286 74 59 326 299 253 248 251 267 284 271 195 159 172 132 148 165 198 207 185 146 161 144 153 137 104 102 58 91 151 124 146 152 139 151 144 139 120 112
340 342 340 332 326 4 8 112 324 174 267 306 221 219 197 172 186 217 181 140 162 180 201 223 104 154 167 143 141 77 137 154 96 103 82 155 159 182 156 164 170 199 210 184 140
340 339 341 328 35 338 296 356 321 190 317 288 241 213 144 173 192 207 171 151 138 124 143 176 69 158 141 117 147 146 132 119 118 218 321 280 253 223 193 210 209 201 209 199 183
334 336 338 333 301 300 320 334 268 204 327 53 158 79 129 184 123 165 164 119 184 130 223 77 137 146 152 77 190 107 69 71 83 92 252 166 253 125 213 238 222 214 215 209 205
329 329 339 150 243 264 318 314 230 334 265 342 148 171 151 95 123 104 137 63 56 105 55 55 24 26 83 70 46 144 93 63 67 64 244 48 263 235 197 238 221 205 213 210 209
325 321 321 262 284 329 322 344 231 216 336 28 345 193 182 180 199 172 166 147 193 180 159 81 28 7 134 109 99 126 146 255 224 204 287 117 248 299 284 233 256 203 200 202 205
321 314 213 238 290 326 331 66 193 294 268 327 7 168 207 173 199 150 143 176 148 125 135 176 177 19 13 0 156 148 227 253 271 255 314 169 242 125 337 308 231 208 196 201 209
316 318 289 259 268 176 117 155 231 208 318 342 317 195 200 195 214 173 198 207 196 182 205 174 183 66 34 98 295 141 184 47 105 72 267 294 265 229 163 159 181 193 199 212 210
326 325 286 331 172 107 121 222 227 224 308 312 286 237 232 188 180 188 189 166 186 204 233 177 140 74 123 54 56 271 131 161 130 258 271 222 273 261 212 202 181 195 207 214 212
330 321 37 4 243 116 209 213 228 227 224 240 279 289 261 204 213 183 194 158 184 133 95 148 212 145 198 215 186 151 164 66 100 259 269 282 241 220 233 205 201 205 209 214 214
344 283 36 290 234 339 216 191 204 210 169 278 245 241 241 181 167 190 193 297 164 154 160 116 113 152 163 6 292 14 158 182 230 207 235 299 255 16 297 241 221 223 224 226 222
316 277 1 276 226 212 242 244 239 239 234 231 272 231 199 197 195 177 174 37 185 147 160 176 127 148 173 174 148 218 168 129 105 122 194 227 242 36 34 345 245 247 243 239 238
270 287 269 70 20 223 227 241 236 234 250 220 249 175 169 196 345 169 158 39 19 99 84 105 133 207 241 294 121 178 186 177 198 211 219 232 255 208 263 286 286 285 294 276 253
219 238 348 303 102 5 287 315 234 230 223 185 216 214 182 177 161 186 152 145 76 143 80 183 175 186 203 218 200 206 198 192 212 233 232 260 231 257 268 249 295 312 72 87 87
257 232 186 274 299 287 220 213 242 243 197 203 222 224 203 184 186 191 174 198 183 158 131 21 139 161 214 210 233 251 241 233 238 247 254 263 270 264 179 151 137 115 109 95 88
204 261 280 274 271 232 252 252 270 344 242 246 223 214 212 226 183 43 112 122 163 162 144 150 143 158 240 265 233 262 240 236 230 227 251 249 281 176 166 153 142 123 107 94 82